LOWW

Vienna International/Schwechat

Airport
ICAO code
LOWW
IATA Code
VIE
Summary
ICAO Region
EUR
ICAO Territory
Location

Schwechat, Vienna

Serving
Vienna
Elevation
600 ft
Coordinates
48° 6' 37" N , 16° 34' 11" E
KCC
Metar
Observation
LOWW 042220Z 33011KT CAVOK M02/M05 Q1034 NOSIG
Station
Wien / Schwechat-Flughafen
Date/Time
2023-02-04 22:20:00
Wind direction
330°
Wind speed
11 kts
Lowest cloud amount
clouds and visibility OK
Temperature
-2°C
Dew point
-5°C
Humidity
79%
QNH
1034 hPa
Weather condition
n/a

International airport serving Vienna, capital of Austria.

Climatology

Humid Continental climate (Köppen climate classification Dfb)

Runways

Designator Length Width Surface Rops
11/29 3500 45 ASP Yes/Yes
16/34 3600 45 ASP Yes/Yes

Airport map

Aerial View

Airport accidents

SKYbrary Partners:

Safety knowledge contributed by: